Location: Unspecified
(0.0000°N, 0.0000°E)
Time: 11:40:00
(UTC+00:00)

Vanguard 1 - Pass Details

Date: 23 November 2019
Orbit: 651 x 3832 km, 34.3° (Epoch: 13 December)

Event Time Altitude Azimuth Distance (km) Brightness Sun altitude
Rises 23:22:59 0° 222° (SW) 5,753 14.3 -68.8°
Reaches altitude 10° 23:29:18 10° 200° (SSW) 5,403 14.0 -69.1°
Maximum altitude 23:38:18 16° 168° (SSE) 5,666 14.0 -69.5°
Drops below altitude 10° 23:49:18 10° 136° (SE) 6,739 14.4 -69.5°
Sets 23:59:21 0° 117° (ESE) 7,973 14.9 -69.3°
